GW2224 Weather Reports


Display with metric or nautical units.
time (UTC)temp
F
wind
direction
speed
MPH
gust
MPH
rain 1hr
in
rain 24hr
in
rain mn
in
humidity
%
barometer
mb
20260505022327 55 222 13.0 14.0 0.00 0.00 0.00 94 1013.1
20260505021825 55 181 5.0 13.0 0.00 0.00 0.00 94 1013.0
20260505021321 55 193 8.0 14.0 0.00 0.00 0.00 94 1013.2
20260505020817 55 208 10.0 13.0 0.00 0.00 0.00 94 1013.0
20260505020313 55 189 4.0 16.0 0.00 0.00 0.00 94 1013.0
20260505015810 55 190 5.0 13.0 0.00 0.00 0.00 94 1013.0
20260505015307 55 184 11.0 14.0 0.00 0.00 0.00 93 1012.9
20260505014804 55 209 5.0 16.0 0.00 0.00 0.00 93 1013.0
20260505014301 55 187 10.0 19.0 0.00 0.00 0.00 93 1013.1
20260505013757 55 201 12.0 14.0 0.00 0.00 0.00 92 1013.0
20260505013255 55 184 5.0 15.0 0.00 0.00 0.00 91 1012.9
20260505012753 56 200 10.0 15.0 0.00 0.00 0.00 91 1012.8
20260505012250 56 180 11.0 19.0 0.00 0.00 0.00 91 1012.9
20260505011745 56 177 5.0 18.0 0.00 0.00 0.00 90 1012.9
20260505011243 56 197 11.0 20.0 0.00 0.00 0.00 89 1012.8
20260505010738 56 205 13.0 20.0 0.00 0.00 0.00 89 1012.6
20260505010235 57 196 13.0 16.0 0.00 0.00 0.00 88 1012.5
20260505005731 57 185 11.0 19.0 0.00 0.00 0.00 88 1012.7
20260505005228 57 208 9.0 18.0 0.00 0.00 0.00 88 1012.5
20260505004725 57 196 9.0 19.0 0.00 0.00 0.00 87 1012.5
20260505004222 57 193 12.0 20.0 0.00 0.00 0.00 86 1012.7
20260505003719 57 168 11.0 22.0 0.00 0.00 0.00 85 1012.4
20260505003217 58 233 6.0 32.0 0.00 0.00 0.00 85 1012.4
20260505002713 58 212 12.0 22.0 0.00 0.00 0.00 85 1012.3
20260505002211 57 209 17.0 23.0 0.00 0.00 0.00 86 1012.1
20260505001708 57 203 11.0 23.0 0.00 0.00 0.00 87 1012.2
20260505001205 57 202 13.0 18.0 0.00 0.00 0.00 88 1012.2
20260505000702 57 205 13.0 16.0 0.00 0.00 0.00 89 1011.8
20260505000200 56 233 6.0 24.0 0.00 0.00 0.00 89 1012.0
20260504235656 56 199 19.0 19.0 0.00 0.00 0.00 90 1011.9
20260504235152 56 203 6.0 15.0 0.00 0.00 0.00 90 1012.1
20260504234650 56 204 7.0 11.0 0.00 0.00 0.00 91 1012.1
20260504234147 56 167 4.0 11.0 0.00 0.00 0.00 91 1012.1
20260504233643 56 207 9.0 13.0 0.00 0.00 0.00 91 1012.0
20260504233139 56 215 9.0 13.0 0.00 0.00 0.00 90 1012.2
20260504232637 56 223 5.0 11.0 0.00 0.00 0.00 90 1012.1
20260504232133 56 226 6.0 15.0 0.00 0.00 0.00 90 1012.1
20260504231630 56 188 5.0 13.0 0.00 0.00 0.00 90 1011.9
20260504231127 56 190 5.0 11.0 0.00 0.00 0.00 90 1011.8
20260504230623 56 202 5.0 11.0 0.00 0.00 0.00 89 1012.1
20260504230122 56 189 7.0 15.0 0.00 0.00 0.00 89 1012.2
20260504225619 56 195 12.0 13.0 0.00 0.00 0.00 90 1012.4
20260504225115 56 174 4.0 12.0 0.00 0.00 0.00 90 1012.2
20260504224612 56 116 2.0 8.0 0.00 0.00 0.00 89 1012.3
20260504224109 56 211 4.0 10.0 0.00 0.00 0.00 89 1012.3
20260504223606 56 175 4.0 10.0 0.00 0.00 0.00 89 1012.1
20260504223102 56 172 8.0 8.0 0.00 0.00 0.00 89 1012.1
20260504222559 56 197 4.0 9.0 0.00 0.00 0.00 89 1012.1
20260504222056 56 159 4.0 11.0 0.00 0.00 0.00 89 1012.1
20260504221553 57 131 4.0 13.0 0.00 0.00 0.00 88 1012.1
20260504221050 57 116 4.0 11.0 0.00 0.00 0.00 89 1012.0
20260504220547 57 186 4.0 11.0 0.00 0.00 0.00 88 1012.0
20260504220044 57 201 6.0 12.0 0.00 0.00 0.00 88 1012.0
20260504215540 57 192 9.0 14.0 0.00 0.00 0.00 88 1011.8
20260504215038 57 144 5.0 13.0 0.00 0.00 0.00 88 1012.0
20260504214533 57 185 5.0 10.0 0.00 0.00 0.00 88 1012.0
20260504214030 57 209 10.0 10.0 0.00 0.00 0.00 88 1012.0
20260504213526 57 189 9.0 12.0 0.00 0.00 0.00 88 1012.1
20260504213024 57 176 7.0 15.0 0.00 0.00 0.00 88 1012.1
20260504212519 57 212 5.0 14.0 0.00 0.00 0.00 87 1012.2
20260504212017 57 191 10.0 17.0 0.00 0.00 0.00 87 1012.2
20260504211514 57 188 5.0 11.0 0.00 0.00 0.00 87 1012.2
20260504211011 57 116 8.0 13.0 0.00 0.00 0.00 87 1012.2
20260504210508 57 120 3.0 14.0 0.00 0.00 0.00 87 1012.2
20260504210005 57 208 14.0 14.0 0.00 0.00 0.00 86 1012.0
20260504205502 57 156 5.0 13.0 0.00 0.00 0.00 86 1012.2
20260504205000 57 186 5.0 13.0 0.00 0.00 0.00 86 1012.2
20260504204458 58 187 5.0 13.0 0.00 0.00 0.00 85 1012.2
20260504203957 58 203 6.0 15.0 0.00 0.00 0.00 85 1012.3
20260504203455 57 173 5.0 18.0 0.00 0.00 0.00 86 1012.2
20260504202950 58 172 9.0 17.0 0.00 0.00 0.00 85 1012.3
20260504202447 57 168 11.0 17.0 0.00 0.00 0.00 85 1012.2
20260504201944 58 183 8.0 13.0 0.00 0.00 0.00 84 1012.3
20260504201441 58 159 11.0 17.0 0.00 0.00 0.00 85 1012.3
20260504200939 57 153 9.0 17.0 0.00 0.00 0.00 85 1012.2
20260504200435 58 190 8.0 13.0 0.00 0.00 0.00 85 1012.3
20260504195932 58 184 11.0 16.0 0.00 0.00 0.00 85 1012.4
20260504195428 57 155 7.0 18.0 0.00 0.00 0.00 85 1012.2
20260504194924 57 127 5.0 14.0 0.00 0.00 0.00 85 1012.4
20260504194420 57 167 9.0 15.0 0.00 0.00 0.00 85 1012.7
20260504193916 58 136 7.0 14.0 0.00 0.00 0.00 85 1012.8
20260504193414 57 129 9.0 15.0 0.00 0.00 0.00 85 1012.6
20260504192913 57 149 9.0 14.0 0.00 0.00 0.00 86 1012.7
20260504192409 57 163 10.0 16.0 0.00 0.00 0.00 85 1012.8
20260504191909 57 149 12.0 18.0 0.00 0.00 0.00 85 1012.8
20260504191406 57 127 9.0 18.0 0.00 0.00 0.00 85 1012.9
20260504190901 57 136 7.0 15.0 0.00 0.00 0.00 85 1012.8
20260504190357 57 168 11.0 19.0 0.00 0.00 0.00 84 1012.9
20260504185854 57 141 7.0 20.0 0.00 0.00 0.00 85 1013.0
20260504185351 57 147 11.0 17.0 0.00 0.00 0.00 85 1013.0
20260504184847 58 158 5.0 14.0 0.00 0.00 0.00 83 1013.2
20260504184343 58 121 7.0 15.0 0.00 0.00 0.00 82 1013.4
20260504183839 57 188 6.0 13.0 0.00 0.00 0.00 84 1013.5
20260504183337 58 174 7.0 13.0 0.00 0.00 0.00 83 1013.4
20260504182834 58 114 10.0 17.0 0.00 0.00 0.00 82 1013.3
20260504182331 58 121 7.0 14.0 0.00 0.00 0.00 83 1013.4
20260504181828 58 176 7.0 15.0 0.00 0.00 0.00 82 1013.5
20260504181325 58 150 17.0 19.0 0.00 0.00 0.00 83 1013.4
20260504180824 58 164 6.0 17.0 0.00 0.00 0.00 83 1013.6
20260504180322 58 191 16.0 18.0 0.00 0.00 0.00 82 1013.6
20260504175820 59 176 12.0 16.0 0.00 0.00 0.00 81 1013.7
20260504175317 59 173 7.0 14.0 0.00 0.00 0.00 80 1013.7
20260504174815 59 195 9.0 13.0 0.00 0.00 0.00 82 1013.8
20260504174312 59 196 12.0 14.0 0.00 0.00 0.00 80 1013.9
20260504173809 59 201 8.0 16.0 0.00 0.00 0.00 81 1014.1
20260504173305 59 197 6.0 14.0 0.00 0.00 0.00 83 1014.0
20260504172803 57 165 9.0 21.0 0.00 0.00 0.00 83 1014.0
20260504172259 58 125 7.0 14.0 0.00 0.00 0.00 82 1014.1
20260504171755 59 165 5.0 12.0 0.00 0.00 0.00 82 1014.2
20260504171252 58 166 4.0 15.0 0.00 0.00 0.00 83 1014.3
20260504170749 58 168 6.0 17.0 0.00 0.00 0.00 82 1014.4
20260504170246 58 163 7.0 16.0 0.00 0.00 0.00 83 1014.4
20260504160205 58 219 10.0 14.0 0.00 0.00 0.00 83 1014.9
20260504151133 57 205 10.0 13.0 0.00 0.00 0.00 83 1015.2
20260504150630 57 193 4.0 14.0 0.00 0.00 0.00 84 1015.3
20260504150127 57 214 10.0 17.0 0.00 0.00 0.00 83 1015.4
20260504141055 57 208 7.0 14.0 0.00 0.00 0.00 83 1015.5
20260504140552 57 205 6.0 15.0 0.00 0.00 0.00 84 1015.4
20260504130516 55 172 13.0 13.0 0.00 0.00 0.00 87 1015.8
20260504110404 54 194 11.0 14.0 0.00 0.00 0.00 77 1016.5
20260504100321 52 204 7.0 11.0 0.00 0.00 0.00 80 1016.4
20260504081714 53 229 7.0 17.0 0.00 0.00 0.00 67 1016.2
20260504081211 53 222 5.0 15.0 0.00 0.00 0.00 66 1016.3
20260504080707 53 242 6.0 15.0 0.00 0.00 0.00 65 1016.2
20260504080204 53 250 5.0 13.0 0.00 0.00 0.00 63 1016.0
20260504070131 53 210 4.0 12.0 0.00 0.00 0.00 62 1016.0
20260504050520 54 236 4.0 11.0 0.00 0.00 0.00 54 1015.7
20260504050017 54 247 5.0 9.0 0.00 0.00 0.00 54 1015.6
20260504045514 54 330 2.0 15.0 0.00 0.00 0.00 54 1015.5
20260504045009 54 219 7.0 12.0 0.00 0.00 0.00 53 1015.4
20260504044507 54 209 6.0 9.0 0.00 0.00 0.00 53 1015.4
20260504044004 54 210 4.0 11.0 0.00 0.00 0.00 53 1015.5
20260504043500 54 254 4.0 17.0 0.00 0.00 0.00 53 1015.6
20260504042958 54 296 11.0 12.0 0.00 0.00 0.00 53 1015.5
20260504042454 54 247 6.0 11.0 0.00 0.00 0.00 55 1015.7
20260504041951 54 59 4.0 10.0 0.00 0.00 0.00 55 1015.4
20260504041448 54 225 4.0 9.0 0.00 0.00 0.00 56 1015.5
20260504040943 54 263 4.0 12.0 0.00 0.00 0.00 56 1015.4
20260504040441 54 237 5.0 13.0 0.00 0.00 0.00 56 1015.5
20260504035937 54 220 6.0 15.0 0.00 0.00 0.00 56 1015.4
20260504035435 54 242 4.0 10.0 0.00 0.00 0.00 57 1015.4
20260504034931 54 242 2.0 9.0 0.00 0.00 0.00 57 1015.1
20260504034429 54 260 5.0 8.0 0.00 0.00 0.00 58 1015.3
20260504033926 54 222 2.0 11.0 0.00 0.00 0.00 59 1015.2
20260504033423 54 218 4.0 7.0 0.00 0.00 0.00 60 1015.3
20260504032920 54 223 4.0 11.0 0.00 0.00 0.00 58 1015.2
20260504032417 54 198 4.0 11.0 0.00 0.00 0.00 57 1015.1
20260504031914 54 252 3.0 11.0 0.00 0.00 0.00 55 1015.2
20260504031411 54 201 5.0 10.0 0.00 0.00 0.00 55 1015.4
20260504030908 54 213 4.0 7.0 0.00 0.00 0.00 55 1015.1
20260504030405 54 256 4.0 11.0 0.00 0.00 0.00 55 1015.2
20260504025901 54 185 3.0 9.0 0.00 0.00 0.00 53 1015.2
20260504025358 55 238 3.0 9.0 0.00 0.00 0.00 52 1015.1
20260504024854 55 212 4.0 9.0 0.00 0.00 0.00 50 1015.1
20260504024351 55 223 5.0 9.0 0.00 0.00 0.00 49 1015.1
20260504023848 55 179 0.0 8.0 0.00 0.00 0.00 47 1015.3
20260504023345 55 196 2.0 6.0 0.00 0.00 0.00 48 1015.0
20260504022840 55 215 5.0 8.0 0.00 0.00 0.00 50 1015.4